Location: Observatoire
(46.1952°N, 5.3391°E)
Time: 08:10:00
(UTC+01:00)

Altair - Pass Details

Date: 22 February 2026
Orbit: 1502 x 1682 km, 47.2° (Epoch: 9 March)

Event Time Altitude Azimuth Distance (km) Brightness Sun altitude
Rises 02:17:22 0° 193° (SSW) 4,626 - -49.7°
Reaches altitude 10° 02:21:06 10° 180° (S) 3,642 - -49.4°
Maximum altitude 02:27:56 24° 131° (SE) 2,706 - -48.7°
Exits shadow 02:31:25 19° 101° (E) 2,993 9.1 -48.3°
Drops below altitude 10° 02:34:49 10° 82° (E) 3,683 9.8 -47.9°
Sets 02:38:35 0° 69° (ENE) 4,689 10.6 -47.5°
